Location: Monrovia
(34.7865°N, 86.7139°W)
Time: 21:49:39
(UTC+00:00)

Cosmos 1536 - Pass Details

Date: 14 July 2020
Orbit: 539 x 560 km, 82.5° (Epoch: 08 August)

Event Time Altitude Azimuth Distance (km) Brightness Sun altitude
Exits shadow 08:25:55 42° 307° (NW) 808 3.6 -22.9°
Drops below altitude 10° 08:29:11 10° 353° (N) 1,845 6.1 -22.5°
Sets 08:31:26 0° 360° (N) 2,741 7.1 -22.2°
